Le nostre stazioni meteo in Italia

Pubblicità
Il mio iltempo24.it
Braemar, Gran Bretagna (99089): Temperatura & dewpoint: 07.12.2018 21:00:00 - 13.12.2018 21:00:00 (GMT)Braemar, Gran Bretagna (99089): Temperatura -20cm & Temperatura -100cm: 07.12.2018 21:00:00 - 13.12.2018 21:00:00 (GMT)Braemar, Gran Bretagna (99089): precipitazioni: 07.12.2018 21:00:00 - 13.12.2018 21:00:00 (GMT)
Data & Tempo tt [°C] td [°C] tt -20cm [°C] tt -100cm [°C] rr [mm]
13.12.2018 21:00:00 1,9 -2,6 - - 0,0
13.12.2018 20:00:00 2,8 -2,1 - - 0,0
13.12.2018 19:00:00 2,7 -1,8 - - 0,0
13.12.2018 18:00:00 2,6 -1,8 - - 0,0
13.12.2018 17:00:00 2,7 -2,1 - - 0,0
13.12.2018 16:00:00 2,7 -2,6 - - 0,0
13.12.2018 15:00:00 2,6 -2,8 - - 0,0
13.12.2018 14:00:00 2,8 -2,8 - - 0,0
13.12.2018 13:00:00 3,0 -2,1 - - 0,0
13.12.2018 12:00:00 3,2 -2,2 - - 0,0
13.12.2018 11:00:00 3,4 -2,2 - - 0,0
13.12.2018 10:00:00 3,2 -1,7 - - 0,0
13.12.2018 09:00:00 3,0 -2,1 3,5 5,0 0,0
13.12.2018 08:00:00 2,9 -1,9 - - 0,0
13.12.2018 07:00:00 2,8 -1,3 - - 0,0
13.12.2018 06:00:00 2,6 -2,0 - - 0,0
13.12.2018 05:00:00 2,6 -2,3 - - 0,0
13.12.2018 04:00:00 2,6 -2,6 - - 0,0
13.12.2018 03:00:00 2,6 -2,6 - - 0,0
13.12.2018 02:00:00 2,6 -2,5 - - 0,0
13.12.2018 01:00:00 3,1 -2,3 - - 0,0
13.12.2018 00:00:00 3,1 -2,1 - - 0,0
12.12.2018 23:00:00 3,0 -2,1 - - 0,0
12.12.2018 22:00:00 3,1 -1,8 - - 0,0
12.12.2018 21:00:00 3,3 -1,3 - - 0,0
12.12.2018 20:00:00 4,4 0,1 - - 0,0
12.12.2018 19:00:00 4,6 0,9 - - 0,0
12.12.2018 18:00:00 4,7 1,8 - - 0,0
12.12.2018 17:00:00 5,1 1,9 - - 0,0
12.12.2018 16:00:00 5,1 2,1 - - 0,0
12.12.2018 15:00:00 4,7 2,8 - - 0,0
12.12.2018 14:00:00 4,5 3,1 - - 0,0
12.12.2018 13:00:00 4,9 2,8 - - 0,0
12.12.2018 12:00:00 5,0 3,1 - - 0,0
12.12.2018 11:00:00 4,7 3,3 - - 0,0
12.12.2018 10:00:00 4,9 3,4 - - 0,0
12.12.2018 09:00:00 4,4 3,8 3,2 5,0 0,0
12.12.2018 08:00:00 5,0 3,5 - - 0,2
12.12.2018 07:00:00 5,0 4,0 - - 0,0
12.12.2018 06:00:00 5,5 3,9 - - 0,0
12.12.2018 05:00:00 5,4 3,7 - - 0,0
12.12.2018 04:00:00 6,0 4,0 - - 0,0
12.12.2018 03:00:00 6,1 4,0 - - 0,0
12.12.2018 02:00:00 6,1 4,0 - - 0,0
12.12.2018 01:00:00 6,2 3,9 - - 0,0
12.12.2018 00:00:00 6,4 3,7 - - 0,0
11.12.2018 23:00:00 6,7 3,8 - - 0,0
11.12.2018 22:00:00 6,5 4,6 - - 0,0
11.12.2018 21:00:00 7,2 4,9 - - 0,0
11.12.2018 20:00:00 6,6 4,9 - - 0,0
11.12.2018 19:00:00 6,6 4,7 - - 0,0
11.12.2018 18:00:00 5,2 4,3 - - 0,0
11.12.2018 17:00:00 5,7 4,4 - - 0,0
11.12.2018 16:00:00 5,6 4,4 - - 0,0
11.12.2018 15:00:00 5,7 4,3 - - 0,0
11.12.2018 14:00:00 5,5 4,0 - - 0,0
11.12.2018 13:00:00 5,2 3,6 - - 0,0
11.12.2018 12:00:00 5,0 3,3 - - 0,0
11.12.2018 11:00:00 3,9 2,8 - - 0,0
11.12.2018 10:00:00 3,4 2,2 - - 0,0
11.12.2018 09:00:00 2,6 1,7 2,7 5,0 0,0
11.12.2018 08:00:00 2,4 1,4 - - 0,0
11.12.2018 07:00:00 2,3 0,9 - - 0,0
11.12.2018 06:00:00 2,2 0,6 - - 0,0
11.12.2018 05:00:00 2,0 0,4 - - 0,0
11.12.2018 04:00:00 1,2 0,1 - - 0,0
11.12.2018 03:00:00 0,6 -0,6 - - 0,0
11.12.2018 02:00:00 0,6 -0,5 - - 0,0
11.12.2018 01:00:00 0,4 -0,8 - - 0,0
11.12.2018 00:00:00 0,0 -1,1 - - 0,0
10.12.2018 23:00:00 -0,2 -1,5 - - 0,0
10.12.2018 22:00:00 -0,5 -1,5 - - 0,0
10.12.2018 21:00:00 -0,6 -1,5 - - 0,0
10.12.2018 20:00:00 -0,8 -1,8 - - 0,0
10.12.2018 19:00:00 -1,3 -2,0 - - 0,0
10.12.2018 18:00:00 -1,1 -1,8 - - 0,0
10.12.2018 17:00:00 -1,0 -2,1 - - 0,0
10.12.2018 16:00:00 0,7 -1,4 - - 0,0
10.12.2018 15:00:00 1,8 -1,2 - - 0,0
10.12.2018 14:00:00 2,1 -2,2 - - 0,0
10.12.2018 13:00:00 2,9 -2,6 - - 0,0
10.12.2018 12:00:00 1,7 -2,0 - - 0,0
10.12.2018 11:00:00 1,2 -2,2 - - 0,0
10.12.2018 10:00:00 1,6 -2,4 - - 0,0
10.12.2018 09:00:00 2,1 -2,1 3,0 5,0 0,0
10.12.2018 08:00:00 1,8 -1,1 - - 0,0
10.12.2018 07:00:00 2,0 -1,4 - - 0,0
10.12.2018 06:00:00 2,8 -1,4 - - 0,0
10.12.2018 05:00:00 2,1 -1,0 - - 0,0
10.12.2018 04:00:00 1,8 0,3 - - 0,2
10.12.2018 03:00:00 1,5 0,4 - - 0,2
10.12.2018 02:00:00 1,5 0,1 - - 0,0
10.12.2018 01:00:00 1,8 -0,2 - - 0,0
10.12.2018 00:00:00 2,7 -1,0 - - 0,0
09.12.2018 23:00:00 2,5 -0,8 - - 0,0
09.12.2018 22:00:00 2,3 -0,3 - - 0,0
09.12.2018 21:00:00 1,5 0,3 - - 0,2
09.12.2018 20:00:00 1,4 -0,6 - - 0,0
09.12.2018 19:00:00 1,6 -0,5 - - 0,0
09.12.2018 18:00:00 0,6 -2,0 - - 0,0
09.12.2018 17:00:00 2,6 -1,9 - - 0,0
09.12.2018 16:00:00 2,9 -1,9 - - 0,0
09.12.2018 15:00:00 2,6 -2,2 - - 0,0
09.12.2018 14:00:00 3,4 -2,6 - - 0,0
09.12.2018 13:00:00 3,4 -1,8 - - 0,0
09.12.2018 12:00:00 3,8 -1,4 - - 0,0
09.12.2018 11:00:00 3,5 -1,7 - - 0,0
09.12.2018 10:00:00 2,5 -0,8 - - 0,0
09.12.2018 09:00:00 2,6 0,7 3,2 5,0 0,2
09.12.2018 08:00:00 2,8 0,6 - - 0,0
09.12.2018 07:00:00 2,9 0,5 - - 0,2
09.12.2018 06:00:00 3,2 0,2 - - 0,0
09.12.2018 05:00:00 3,5 -0,1 - - 0,0
09.12.2018 04:00:00 3,8 -0,8 - - 0,0
09.12.2018 03:00:00 3,9 0,9 - - 0,0
09.12.2018 02:00:00 3,8 1,1 - - 0,0
09.12.2018 01:00:00 3,8 1,5 - - 0,2
09.12.2018 00:00:00 4,1 1,7 - - 0,0
08.12.2018 23:00:00 3,5 1,6 - - 0,0
08.12.2018 22:00:00 4,0 1,6 - - 0,0
08.12.2018 21:00:00 3,8 2,1 - - 0,0
08.12.2018 20:00:00 3,9 1,6 - - 0,0
08.12.2018 19:00:00 4,8 1,6 - - 0,0
08.12.2018 18:00:00 4,2 2,3 - - 0,0
08.12.2018 17:00:00 3,9 2,2 - - 0,0
08.12.2018 16:00:00 5,3 3,0 - - 0,0
08.12.2018 15:00:00 5,8 3,3 - - 0,0
08.12.2018 14:00:00 6,0 3,6 - - 0,0
08.12.2018 13:00:00 6,1 3,6 - - 0,0
08.12.2018 12:00:00 6,1 3,5 - - 0,2
08.12.2018 11:00:00 5,8 3,5 - - 0,0
08.12.2018 10:00:00 5,4 3,4 - - 0,0
08.12.2018 09:00:00 5,2 3,3 2,7 5,0 0,2
08.12.2018 08:00:00 6,5 3,1 - - 0,6
08.12.2018 07:00:00 6,0 3,3 - - 0,8
08.12.2018 06:00:00 6,1 3,5 - - 0,4
08.12.2018 05:00:00 5,6 3,7 - - 1,0
08.12.2018 04:00:00 5,2 3,2 - - 0,6
08.12.2018 03:00:00 5,6 2,8 - - 0,2
08.12.2018 02:00:00 5,6 3,1 - - 1,2
08.12.2018 01:00:00 5,8 3,5 - - 0,0
08.12.2018 00:00:00 5,5 3,7 - - 0,6
07.12.2018 23:00:00 5,8 3,8 - - 0,8
07.12.2018 22:00:00 5,6 3,0 - - 0,2
07.12.2018 21:00:00 5,9 3,4 - - 0,2

tt = Temperatura
td = dewpoint
tt -20cm = Temperatura -20cm
tt -100cm = Temperatura -100cm
rr = precipitazioni

Stazioni seguenti

WeatherPro
AMSI
MeteoEarth